Tracking 30685 objects as of 18-Jun-2025
HD Live streaming from Space Station
objects crossing your sky now

NOAA 16 DEB

Track NOAA 16 DEB now!
10-day predictions


NORAD ID: 41707
Int'l Code: 2000-055PM
Perigee: 730.6 km
Apogee: 768.4 km
Inclination: 98.8 °
Period: 99.7 minutes
Semi major axis: 7120 km
RCS: Unknown
Launch date: September 21, 2000
Source: United States (US)
Launch site: AIR FORCE WESTERN TEST RANGE (AFWTR)

Note: This is SATELLITE DEBRIS
Your satellite tracking list
Your tracking list is empty




NASA's NSSDC Master Catalog

Two Line Element Set (TLE):
1 41707U 00055PM  25169.61128197  .00006327  00000-0  18213-2 0  9992
2 41707  98.8319 298.9298 0026554 141.3894 218.9201 14.44904275476301
Source of the keplerian elements: AFSPC